METEOR 2-17 DEB

Satellite information

Favourite Embed

Satellite Type and Status

DEBRISIN ORBIT

Key statistics

Satellite METEOR 2-17 DEB at a glance.

Uptime

13788

Days in orbit

Revolutions

≈ 14.0

Per day

Orbit

LEO

Low Earth Orbit

Inclination

82.5

Latest

Satellite identification and parameters

Extended collection of information and parameters for METEOR 2-17 DEB.

Object identification

Identified? True

Debris? True

Object name: METEOR 2-17 DEB

International designator: 1988-005C

Object number (NORAD): 28988

Object ID (CCSDS): 28988

Country: COMMONWEALTH OF INDEPENDENT STATES (CIS)

Current information (Y/N): Y

RCS size: SMALL

Orbital parameters

Period: 102.763 minutes

Inclination: 82.527 deg

SMA: 7267.514 km

Apoapsis: 896.532 km

Periapsis: 882.226 km

RAAN: 95.2121 deg

Eccentricy: 0.0009843

Argument of periapsis: 189.1774 deg

Mean anomaly: 170.9217 deg

Mean motion: 14.01276846 rev/day

Mean motion (dot): 0.00003509 rev/day2

B* drag term: 0.0023217101 1/REarth

Two-line elements (TLE)

Creation date: Oct. 29, 2025, 7:31 p.m.

Reference frame: TEME

Reference center: EARTH

Epoch: Oct. 29, 2025, 3:45 a.m. UTC

TLE line 0: 0 METEOR 2-17 DEB

TLE line 1: 1 28988U 88005C 25302.15626489 .00003509 00000-0 23217-2 0 9993

TLE line 2: 2 28988 82.5270 95.2121 0009843 189.1774 170.9217 14.01276846581169

Live tracking on map

Real-time ground track for satellite METEOR 2-17 DEB.

In-orbit conjunctions

A list of the most updated potential collisions computed for object METEOR 2-17 DEB.

Target Orbit TCA Probability of collision Miss distance Type
CZ-4B R/B SSO 2025-10-11 06:55:49 0.0001568511 827.0 (m) ROCKET BODY
METEOR 2-7 LEO 2025-10-01 15:25:29 0.0001142244 367.0 (m) PAYLOAD
FENGYUN 1C DEB SSO 2025-03-17 11:31:32 0.0003261965 72.0 (m) DEBRIS
FENGYUN 1C DEB SSO 2025-03-04 19:18:34 0.0001018093 311.0 (m) DEBRIS

Associated space launch

Second generation soviet meteorological satellite

METEOR 2-17 DEB was lifted into orbit during the mission ‘Tsiklon-3 | Meteor-2 17’, on board a Tsiklon-3 space rocket.

The launch took place on Jan. 30, 1988, 10:59 a.m. from 32/1.

For more information about the launch, click the button.

Launch to space Tsiklon-3 | Meteor-2 17
Tsiklon-3 | Meteor-2 17

Agency: N/A

Status: Launch Successful

Launch date: Jan. 30, 1988, 10:59 a.m. UTC

Rocket: Tsiklon-3

Launch pad: 32/1

Location: Plesetsk Cosmodrome, Russian Federation

...

Latest news about this satellite

There are no fresh news available about this satellite. Check back as we update our databases every day.


Newsletter sign-up

Weekly statistics, charts and insights to help you stay on top of the space industry.